User: anonymous   Login
Location: Unspecified
(0.0000°N, 0.0000°E)
Time: 00:58:47
(UTC+00:00)
Language:

FAISAT-2V - Orbit

View from above orbital plane
View from above orbital plane
View from above satellite
View from above satellite

Ground track
Ground track

The orbit data is extracted from the following two-line orbital elements,

1 24954U 97052B   24140.65426198  .00000185  00000-0  16248-3 0  9997
2 24954  82.9240 192.7344 0037913 286.2783 193.1002 13.80191351342355
Epoch (UTC): 19 May 2024 15:42:08
Eccentricity: 0.0037913
inclination: 82.9240°
perigee height: 935 km
apogee height: 991 km
right ascension of ascending node: 192.7344°
argument of perigee: 286.2783°
revolutions per day: 13.80191351
mean anomaly at epoch: 193.1002°
orbit number at epoch: 34235

The dashed part of the orbit path shows where the satellite is in the earth's shadow,  

DLR